CDT,Max TemperatureF,Mean TemperatureF,Min TemperatureF,Max Dew PointF,MeanDew PointF,Min DewpointF,Max Humidity, Mean Humidity, Min Humidity, Max Sea Level PressureIn, Mean Sea Level PressureIn, Min Sea Level PressureIn, Max VisibilityMiles, Mean VisibilityMiles, Min VisibilityMiles, Max Wind SpeedMPH, Mean Wind SpeedMPH, Max Gust SpeedMPH,PrecipitationIn, CloudCover, Events, WindDirDegrees
2011-10-1,70,58,46,42,39,35,76,52,28,30.27,30.20,30.09,10,10,10,18,7,36,0.00,0,,22
2011-10-2,73,59,44,40,36,29,76,48,20,30.31,30.24,30.19,10,10,10,12,4,28,0.00,0,,23
2011-10-3,77,59,40,45,39,33,85,53,20,30.30,30.23,30.19,10,10,10,7,1,,0.00,0,,278
2011-10-4,81,63,45,48,42,34,86,52,18,30.31,30.24,30.19,10,10,10,8,1,12,0.00,0,,103
2011-10-5,83,65,47,51,47,43,86,55,24,30.26,30.19,30.12,10,10,10,12,2,18,0.00,0,,122
2011-10-6,86,70,53,55,51,45,89,57,25,30.22,30.16,30.12,10,10,8,18,5,22,0.00,0,,123
2011-10-7,86,70,53,54,51,49,86,57,27,30.28,30.22,30.18,10,10,10,16,6,21,0.00,0,,113
2011-10-8,84,69,54,56,53,50,89,62,34,30.29,30.23,30.17,10,10,10,18,7,18,0.00,0,,108
2011-10-9,82,69,56,55,51,48,80,57,33,30.26,30.18,30.09,10,10,7,15,8,25,0.00,0,,81
2011-10-10,82,69,56,59,56,52,80,63,45,30.14,30.06,29.99,10,10,10,12,5,14,0.00,2,,73
2011-10-11,83,70,57,61,57,55,90,65,40,29.99,29.92,29.85,10,10,10,8,1,24,0.00,1,,67
2011-10-12,70,64,57,63,60,55,93,83,73,29.88,29.79,29.69,10,7,2,16,5,20,0.59,5,Rain,244
2011-10-13,77,68,59,59,52,42,90,60,29,29.83,29.72,29.66,10,10,6,21,9,24,0.04,2,Rain,275
2011-10-14,80,67,53,45,43,39,66,45,23,29.99,29.91,29.84,10,10,10,21,8,26,0.00,0,,287
2011-10-15,78,63,47,44,36,32,71,46,20,30.16,30.08,30.00,10,10,10,12,2,16,0.00,1,,318
2011-10-16,87,69,50,53,47,40,72,49,25,30.06,29.97,29.88,10,10,8,26,10,31,0.00,0,,223
2011-10-17,80,69,57,53,47,43,67,51,35,29.96,29.86,29.75,10,10,7,18,10,33,0.00,0,,53
2011-10-18,61,54,47,45,43,39,86,69,51,29.87,29.80,29.70,10,8,2,18,10,25,0.58,7,Rain-Thunderstorm,359
2011-10-19,54,49,43,37,36,35,76,63,50,29.91,29.83,29.78,10,10,10,21,11,29,0.00,5,,302
2011-10-20,61,51,41,35,33,31,70,51,32,30.10,29.99,29.90,10,10,10,20,10,52,0.00,0,,287
2011-10-21,65,53,40,39,33,30,82,55,28,30.24,30.17,30.11,10,10,10,12,4,15,0.00,0,,300
2011-10-22,75,57,38,47,41,36,86,59,31,30.19,30.11,30.04,10,10,9,13,2,20,0.00,0,,206
2011-10-23,66,58,49,53,48,44,93,77,60,30.12,30.06,30.02,10,9,1,10,3,13,0.01,1,Rain,209
2011-10-24,77,62,47,55,49,45,93,72,50,30.21,30.16,30.12,10,5,0,12,3,17,0.00,3,Fog,231
2011-10-25,81,64,46,54,47,39,100,63,25,30.20,30.13,29.97,10,4,0,23,7,29,0.00,1,Fog,191
2011-10-26,78,67,55,62,55,46,87,70,52,29.97,29.90,29.84,10,10,8,23,11,37,0.22,4,Rain-Thunderstorm,224
2011-10-27,55,52,49,52,47,42,86,76,66,30.11,29.99,29.90,10,8,2,17,9,43,0.85,8,Rain-Thunderstorm,7
2011-10-28,59,48,37,43,38,33,86,62,37,30.20,30.15,30.09,10,10,6,17,6,23,0.26,4,Rain,16
2011-10-29,63,51,38,35,31,21,85,53,21,30.26,30.18,30.14,10,10,7,12,4,22,0.00,0,,294
2011-10-30,64,50,35,37,32,27,82,54,25,30.25,30.16,30.10,10,10,10,21,7,28,0.00,0,,201
2011-10-31,69,54,38,38,32,22,85,51,17,30.20,30.16,30.14,10,10,10,14,5,16,0.00,0,,251